This demonstration page uses our WeatherBlox Daily Observations layout. Learn more.

Left ArrowRight Arrow

Hourly Observations for May 22, 2016

Temp ( °F °C ) Dew Point ( °F °C ) Humidity (%) Winds ( mph kmh ) Pressure ( in mb ) Visibility ( mi km ) Precip ( " mm )
12:52 am 00:52 Mostly Cloudy with Light Rain 62 16.7 53 11.7 73 73 SE 8 13 30.08 1019 10 16 0.01 0.25
1:52 am 01:52 Cloudy 61 16.1 53 11.7 75 75 ESE 5 7 30.09 1019 10 16 0.00 0.03
2:52 am 02:52 Cloudy 61 16.1 50 10 67 67 ESE 7 11 30.07 1018 10 16 0.00 0.00
3:52 am 03:52 Mostly Cloudy 61 16.1 50 10 67 67 ESE 6 9 30.08 1019 10 16 0.00 0.00
4:52 am 04:52 Clear 57 13.9 50 10 78 78 SE 5 7 30.09 1019 10 16 0.00 0.03
5:52 am 05:52 Clear 56 13.3 49 9.4 77 77 SSE 6 9 30.10 1019 10 16 0.00 0.00
6:52 am 06:52 Sunny 58 14.4 51 10.6 78 78 SSE 6 9 30.12 1020 10 16 0.00 0.00
7:52 am 07:52 Sunny 63 17.2 51 10.6 65 65 SE 9 15 30.12 1020 10 16 0.00 0.00
8:52 am 08:52 Sunny 68 20 51 10.6 55 55 SE 12 19 30.12 1020 10 16 0.00 0.00
9:52 am 09:52 Sunny 71 21.7 51 10.6 49 49 SSE 10 17 30.11 1020 10 16 0.00 0.00
10:52 am 10:52 Sunny 73 22.8 51 10.6 46 46 SE 12 19 30.11 1020 10 16 0.00 0.00
11:52 am 11:52 Sunny 75 23.9 52 11.1 45 45 S 12 19 30.10 1019 10 16 0.00 0.00
12:52 pm 12:52 Sunny 76 24.4 52 11.1 43 43 S 7 11 30.08 1019 10 16 0.00 0.00
1:52 pm 13:52 Sunny 77 25 52 11.1 42 42 SE 9 15 30.05 1018 10 16 0.00 0.00
2:52 pm 14:52 Sunny 78 25.6 52 11.1 40 40 SSE 9 15 30.03 1017 10 16 0.00 0.00
3:52 pm 15:52 Sunny 79 26.1 53 11.7 41 41 S 9 15 30.00 1016 10 16 0.00 0.00
4:52 pm 16:52 Sunny 79 26.1 51 10.6 38 38 SE 13 20 29.98 1015 10 16 0.00 0.00
5:52 pm 17:52 Sunny 78 25.6 52 11.1 40 40 SSE 12 19 29.97 1015 10 16 0.00 0.00
6:52 pm 18:52 Sunny 77 25 52 11.1 42 42 SSE 10 17 29.96 1015 10 16 0.00 0.00
7:52 pm 19:52 Sunny 73 22.8 49 9.4 43 43 S 8 13 29.94 1014 10 16 0.00 0.00
8:52 pm 20:52 Clear 68 20 50 10 53 53 SE 7 11 29.94 1014 10 16 0.00 0.00
9:52 pm 21:52 Clear 65 18.3 52 11.1 63 63 SE 9 15 29.94 1014 10 16 0.00 0.00
10:52 pm 22:52 Clear 64 17.8 51 10.6 63 63 SSE 8 13 29.96 1015 10 16 0.00 0.00
11:52 pm 23:52 Clear 64 17.8 51 10.6 63 63 S 9 15 30.00 1016 10 16 0.00 0.00

Powered by AerisWeather